Time,TemperatureF,DewpointF,PressureIn,WindDirection,WindDirectionDegrees,WindSpeedMPH,WindSpeedGustMPH,Humidity,HourlyPrecipIn,Conditions,Clouds,dailyrainin,SoftwareType,DateUTC
2013-02-10 00:01:00,29.0,17.0,30.35,WNW,293,11.0,14.0,61,0.00,,,0.00,,2013-02-10 05:01:00,
2013-02-10 00:11:00,29.0,17.0,30.35,WNW,293,11.0,14.0,61,0.00,,,0.00,,2013-02-10 05:11:00,
2013-02-10 00:23:00,28.0,16.0,30.37,WNW,294,12.0,13.0,61,0.00,,,0.00,,2013-02-10 05:23:00,
2013-02-10 00:32:00,28.0,16.0,30.37,WNW,294,12.0,13.0,61,0.00,,,0.00,,2013-02-10 05:32:00,
2013-02-10 00:42:00,28.0,16.0,30.37,WNW,294,12.0,13.0,61,0.00,,,0.00,,2013-02-10 05:42:00,
2013-02-10 00:52:00,28.0,14.0,30.37,NNW,338,7.0,16.0,55,0.00,,,0.00,,2013-02-10 05:52:00,
2013-02-10 01:02:00,28.0,14.0,30.37,NNW,338,7.0,16.0,55,0.00,,,0.00,,2013-02-10 06:02:00,
2013-02-10 01:11:00,28.0,14.0,30.37,NNW,338,7.0,16.0,55,0.00,,,0.00,,2013-02-10 06:11:00,
2013-02-10 01:21:00,27.0,12.0,30.38,North,7,14.0,17.0,53,0.00,,,0.00,,2013-02-10 06:21:00,
2013-02-10 01:32:00,27.0,12.0,30.38,North,7,14.0,17.0,53,0.00,,,0.00,,2013-02-10 06:32:00,
2013-02-10 01:42:00,27.0,12.0,30.38,North,7,14.0,17.0,53,0.00,,,0.00,,2013-02-10 06:42:00,
2013-02-10 01:52:00,27.0,13.0,30.39,North,350,6.0,16.0,55,0.00,,,0.00,,2013-02-10 06:52:00,
2013-02-10 02:01:00,27.0,13.0,30.39,North,350,6.0,16.0,55,0.00,,,0.00,,2013-02-10 07:01:00,
2013-02-10 02:11:00,27.0,13.0,30.39,North,350,6.0,16.0,55,0.00,,,0.00,,2013-02-10 07:11:00,
2013-02-10 02:21:00,26.0,12.0,30.40,NNW,337,7.0,16.0,56,0.00,,,0.00,,2013-02-10 07:21:00,
2013-02-10 02:32:00,26.0,12.0,30.40,NNW,337,7.0,16.0,56,0.00,,,0.00,,2013-02-10 07:32:00,
2013-02-10 02:42:00,26.0,12.0,30.40,NNW,337,7.0,16.0,56,0.00,,,0.00,,2013-02-10 07:42:00,
2013-02-10 02:52:00,25.0,12.0,30.40,NNE,13,5.0,15.0,58,0.00,,,0.00,,2013-02-10 07:52:00,
2013-02-10 03:01:00,25.0,12.0,30.40,NNE,13,5.0,15.0,58,0.00,,,0.00,,2013-02-10 08:01:00,
2013-02-10 03:11:00,25.0,12.0,30.40,NNE,13,5.0,15.0,58,0.00,,,0.00,,2013-02-10 08:11:00,
2013-02-10 03:21:00,25.0,13.0,30.41,NW,309,5.0,14.0,59,0.00,,,0.00,,2013-02-10 08:21:00,
2013-02-10 03:32:00,25.0,13.0,30.41,NW,309,5.0,14.0,59,0.00,,,0.00,,2013-02-10 08:32:00,
2013-02-10 03:43:00,25.0,13.0,30.41,NW,309,5.0,14.0,59,0.00,,,0.00,,2013-02-10 08:43:00,
2013-02-10 03:52:00,24.0,12.0,30.41,NNW,332,9.0,14.0,60,0.00,,,0.00,,2013-02-10 08:52:00,
2013-02-10 04:02:00,24.0,12.0,30.41,NNW,332,9.0,14.0,60,0.00,,,0.00,,2013-02-10 09:02:00,
2013-02-10 04:11:00,24.0,12.0,30.41,NNW,332,9.0,14.0,60,0.00,,,0.00,,2013-02-10 09:11:00,
2013-02-10 04:21:00,24.0,13.0,30.41,North,351,12.0,15.0,61,0.00,,,0.00,,2013-02-10 09:21:00,
2013-02-10 04:32:00,24.0,13.0,30.41,North,351,12.0,15.0,61,0.00,,,0.00,,2013-02-10 09:32:00,
2013-02-10 04:42:00,24.0,13.0,30.41,North,351,12.0,15.0,61,0.00,,,0.00,,2013-02-10 09:42:00,
2013-02-10 04:52:00,23.0,13.0,30.42,NNE,20,4.0,14.0,64,0.00,,,0.00,,2013-02-10 09:52:00,
2013-02-10 05:01:00,23.0,13.0,30.42,NNE,20,4.0,14.0,64,0.00,,,0.00,,2013-02-10 10:01:00,
2013-02-10 05:11:00,23.0,13.0,30.42,NNE,20,4.0,14.0,64,0.00,,,0.00,,2013-02-10 10:11:00,
2013-02-10 05:21:00,23.0,13.0,30.42,North,359,4.0,14.0,65,0.00,,,0.00,,2013-02-10 10:21:00,
2013-02-10 05:32:00,23.0,13.0,30.42,North,359,4.0,14.0,65,0.00,,,0.00,,2013-02-10 10:32:00,
2013-02-10 05:42:00,23.0,13.0,30.42,North,359,4.0,14.0,65,0.00,,,0.00,,2013-02-10 10:42:00,
2013-02-10 05:52:00,22.0,12.0,30.43,NNW,347,5.0,13.0,65,0.00,,,0.00,,2013-02-10 10:52:00,
2013-02-10 06:01:00,22.0,12.0,30.43,NNW,347,5.0,13.0,65,0.00,,,0.00,,2013-02-10 11:01:00,
2013-02-10 06:11:00,22.0,12.0,30.43,NNW,347,5.0,13.0,65,0.00,,,0.00,,2013-02-10 11:11:00,
2013-02-10 06:22:00,22.0,13.0,30.45,NW,316,4.0,7.0,68,0.00,,,0.00,,2013-02-10 11:22:00,
2013-02-10 06:32:00,22.0,13.0,30.45,NW,316,4.0,7.0,68,0.00,,,0.00,,2013-02-10 11:32:00,
2013-02-10 06:42:00,22.0,13.0,30.45,NW,316,4.0,7.0,68,0.00,,,0.00,,2013-02-10 11:42:00,
2013-02-10 06:52:00,22.0,13.0,30.46,NW,322,2.0,8.0,69,0.00,,,0.00,,2013-02-10 11:52:00,
2013-02-10 07:02:00,22.0,13.0,30.46,NW,322,2.0,8.0,69,0.00,,,0.00,,2013-02-10 12:02:00,
2013-02-10 07:12:00,22.0,13.0,30.46,NW,322,2.0,8.0,69,0.00,,,0.00,,2013-02-10 12:12:00,
2013-02-10 07:22:00,22.0,14.0,30.46,NNE,19,4.0,11.0,70,0.00,,,0.00,,2013-02-10 12:22:00,
2013-02-10 07:32:00,22.0,14.0,30.46,NNE,19,4.0,11.0,70,0.00,,,0.00,,2013-02-10 12:32:00,
2013-02-10 07:42:00,22.0,14.0,30.46,NNE,19,4.0,11.0,70,0.00,,,0.00,,2013-02-10 12:42:00,
2013-02-10 07:52:00,23.0,14.0,30.48,NNE,15,5.0,8.0,68,0.00,,,0.00,,2013-02-10 12:52:00,
2013-02-10 08:02:00,23.0,14.0,30.48,NNE,15,5.0,8.0,68,0.00,,,0.00,,2013-02-10 13:02:00,
2013-02-10 08:12:00,23.0,14.0,30.48,NNE,15,5.0,8.0,68,0.00,,,0.00,,2013-02-10 13:12:00,
2013-02-10 08:21:00,24.0,14.0,30.48,North,349,7.0,9.0,65,0.00,,,0.00,,2013-02-10 13:21:00,
2013-02-10 08:31:00,24.0,14.0,30.48,North,349,7.0,9.0,65,0.00,,,0.00,,2013-02-10 13:31:00,
2013-02-10 08:42:00,24.0,14.0,30.48,North,349,7.0,9.0,65,0.00,,,0.00,,2013-02-10 13:42:00,
2013-02-10 08:52:00,25.0,15.0,30.50,NW,318,3.0,10.0,65,0.00,,,0.00,,2013-02-10 13:52:00,
2013-02-10 09:02:00,25.0,15.0,30.50,NW,318,3.0,10.0,65,0.00,,,0.00,,2013-02-10 14:02:00,
2013-02-10 09:11:00,25.0,15.0,30.50,NW,318,3.0,10.0,65,0.00,,,0.00,,2013-02-10 14:11:00,
2013-02-10 09:22:00,26.0,15.0,30.50,NNW,346,4.0,8.0,63,0.00,,,0.00,,2013-02-10 14:22:00,
2013-02-10 09:32:00,26.0,15.0,30.50,NNW,346,4.0,8.0,63,0.00,,,0.00,,2013-02-10 14:32:00,
2013-02-10 09:42:00,26.0,15.0,30.50,NNW,346,4.0,8.0,63,0.00,,,0.00,,2013-02-10 14:42:00,
2013-02-10 09:52:00,27.0,15.0,30.51,NNW,336,3.0,8.0,60,0.00,,,0.00,,2013-02-10 14:52:00,
2013-02-10 10:02:00,27.0,15.0,30.51,NNW,336,3.0,8.0,60,0.00,,,0.00,,2013-02-10 15:02:00,
2013-02-10 10:12:00,27.0,15.0,30.51,NNW,336,3.0,8.0,60,0.00,,,0.00,,2013-02-10 15:12:00,
2013-02-10 10:22:00,29.0,16.0,30.50,NE,54,3.0,6.0,58,0.00,,,0.00,,2013-02-10 15:22:00,
2013-02-10 10:32:00,29.0,16.0,30.50,NE,54,3.0,6.0,58,0.00,,,0.00,,2013-02-10 15:32:00,
2013-02-10 10:42:00,29.0,16.0,30.50,NE,54,3.0,6.0,58,0.00,,,0.00,,2013-02-10 15:42:00,
2013-02-10 10:52:00,30.0,17.0,30.50,NW,322,2.0,7.0,57,0.00,,,0.00,,2013-02-10 15:52:00,
2013-02-10 11:02:00,30.0,17.0,30.50,NW,322,2.0,7.0,57,0.00,,,0.00,,2013-02-10 16:02:00,
2013-02-10 11:12:00,32.0,18.0,30.50,East,89,7.0,7.0,56,0.00,,,0.00,,2013-02-10 16:12:00,
2013-02-10 11:22:00,32.0,18.0,30.50,East,89,7.0,7.0,56,0.00,,,0.00,,2013-02-10 16:22:00,
2013-02-10 11:32:00,32.0,18.0,30.50,East,89,7.0,7.0,56,0.00,,,0.00,,2013-02-10 16:32:00,
2013-02-10 11:42:00,32.0,16.0,30.49,East,82,4.0,8.0,52,0.00,,,0.00,,2013-02-10 16:42:00,
2013-02-10 11:52:00,32.0,16.0,30.49,East,82,4.0,8.0,52,0.00,,,0.00,,2013-02-10 16:52:00,
2013-02-10 12:02:00,32.0,16.0,30.49,East,82,4.0,8.0,52,0.00,,,0.00,,2013-02-10 17:02:00,
2013-02-10 12:12:00,32.0,16.0,30.49,East,82,4.0,8.0,52,0.00,,,0.00,,2013-02-10 17:12:00,
2013-02-10 12:22:00,32.0,19.0,30.47,East,98,7.0,9.0,58,0.00,,,0.00,,2013-02-10 17:22:00,
2013-02-10 12:32:00,32.0,19.0,30.47,East,98,7.0,9.0,58,0.00,,,0.00,,2013-02-10 17:32:00,
2013-02-10 12:42:00,32.0,18.0,30.45,East,81,2.0,8.0,56,0.00,,,0.00,,2013-02-10 17:42:00,
2013-02-10 12:53:00,32.0,18.0,30.45,East,81,2.0,8.0,56,0.00,,,0.00,,2013-02-10 17:53:00,
2013-02-10 13:02:00,32.0,18.0,30.45,East,81,2.0,8.0,56,0.00,,,0.00,,2013-02-10 18:02:00,
2013-02-10 13:12:00,33.0,19.0,30.44,SE,124,3.0,8.0,56,0.00,,,0.00,,2013-02-10 18:12:00,
2013-02-10 13:22:00,33.0,19.0,30.44,SE,124,3.0,8.0,56,0.00,,,0.00,,2013-02-10 18:22:00,
2013-02-10 13:32:00,33.0,19.0,30.44,SE,124,3.0,8.0,56,0.00,,,0.00,,2013-02-10 18:32:00,
2013-02-10 13:42:00,33.0,19.0,30.44,SE,124,3.0,8.0,56,0.00,,,0.00,,2013-02-10 18:42:00,
2013-02-10 13:52:00,33.0,19.0,30.44,SE,143,5.0,7.0,55,0.00,,,0.00,,2013-02-10 18:52:00,
2013-02-10 14:02:00,33.0,19.0,30.44,SE,143,5.0,7.0,55,0.00,,,0.00,,2013-02-10 19:02:00,
2013-02-10 14:12:00,33.0,18.0,30.43,SSE,155,3.0,8.0,54,0.00,,,0.00,,2013-02-10 19:12:00,
2013-02-10 14:22:00,33.0,18.0,30.43,SSE,155,3.0,8.0,54,0.00,,,0.00,,2013-02-10 19:22:00,
2013-02-10 14:32:00,33.0,18.0,30.43,SSE,155,3.0,8.0,54,0.00,,,0.00,,2013-02-10 19:32:00,
2013-02-10 14:43:00,34.0,19.0,30.45,SSE,167,6.0,9.0,53,0.00,,,0.00,,2013-02-10 19:43:00,
2013-02-10 14:52:00,34.0,19.0,30.45,SSE,167,6.0,9.0,53,0.00,,,0.00,,2013-02-10 19:52:00,
2013-02-10 15:02:00,34.0,19.0,30.45,SSE,167,6.0,9.0,53,0.00,,,0.00,,2013-02-10 20:02:00,
2013-02-10 15:11:00,34.0,19.0,30.45,SSE,167,6.0,9.0,53,0.00,,,0.00,,2013-02-10 20:11:00,
2013-02-10 15:22:00,34.0,19.0,30.42,SE,143,9.0,12.0,54,0.00,,,0.00,,2013-02-10 20:22:00,
2013-02-10 15:32:00,34.0,19.0,30.42,SE,143,9.0,12.0,54,0.00,,,0.00,,2013-02-10 20:32:00,
2013-02-10 15:42:00,34.0,20.0,30.42,SSE,158,7.0,11.0,56,0.00,,,0.00,,2013-02-10 20:42:00,
2013-02-10 15:52:00,34.0,20.0,30.42,SSE,158,7.0,11.0,56,0.00,,,0.00,,2013-02-10 20:52:00,
2013-02-10 16:02:00,34.0,20.0,30.42,SSE,158,7.0,11.0,56,0.00,,,0.00,,2013-02-10 21:02:00,
2013-02-10 16:12:00,34.0,20.0,30.42,SSE,158,7.0,11.0,56,0.00,,,0.00,,2013-02-10 21:12:00,
2013-02-10 16:22:00,34.0,21.0,30.41,SE,139,7.0,11.0,59,0.00,,,0.00,,2013-02-10 21:22:00,
2013-02-10 16:31:00,35.0,23.0,30.41,SE,139,7.0,11.0,60,0.00,,,0.00,,2013-02-10 21:31:00,
2013-02-10 16:32:00,34.0,21.0,30.41,SE,139,7.0,11.0,59,0.00,,,0.00,,2013-02-10 21:32:00,
2013-02-10 16:42:00,35.0,23.0,30.41,SE,139,7.0,11.0,60,0.00,,,0.00,,2013-02-10 21:42:00,
2013-02-10 16:52:00,35.0,23.0,30.41,SE,139,7.0,11.0,60,0.00,,,0.00,,2013-02-10 21:52:00,
2013-02-10 17:02:00,35.0,23.0,30.41,SE,139,7.0,11.0,60,0.00,,,0.00,,2013-02-10 22:02:00,
2013-02-10 17:12:00,35.0,23.0,30.41,SE,139,7.0,11.0,60,0.00,,,0.00,,2013-02-10 22:12:00,
2013-02-10 17:22:00,35.0,23.0,30.41,SE,139,7.0,11.0,60,0.00,,,0.00,,2013-02-10 22:22:00,
2013-02-10 17:42:00,33.0,23.0,30.41,East,94,8.0,11.0,65,0.00,,,0.00,,2013-02-10 22:42:00,
2013-02-10 17:53:00,33.0,23.0,30.41,East,94,8.0,11.0,65,0.00,,,0.00,,2013-02-10 22:53:00,
2013-02-10 18:02:00,33.0,23.0,30.41,East,94,8.0,11.0,65,0.00,,,0.00,,2013-02-10 23:02:00,
2013-02-10 18:12:00,33.0,23.0,30.41,East,94,8.0,11.0,65,0.00,,,0.00,,2013-02-10 23:12:00,
2013-02-10 18:22:00,33.0,24.0,30.43,SSW,212,2.0,11.0,69,0.00,,,0.00,,2013-02-10 23:22:00,
2013-02-10 18:32:00,33.0,24.0,30.43,SSW,212,2.0,11.0,69,0.00,,,0.00,,2013-02-10 23:32:00,
2013-02-10 18:42:00,34.0,27.0,30.43,SE,146,7.0,11.0,74,0.00,,,0.00,,2013-02-10 23:42:00,
2013-02-10 18:52:00,34.0,27.0,30.43,SE,146,7.0,11.0,74,0.00,,,0.00,,2013-02-10 23:52:00,
2013-02-10 19:02:00,34.0,27.0,30.43,SE,146,7.0,11.0,74,0.00,,,0.00,,2013-02-11 00:02:00,
2013-02-10 19:11:00,35.0,27.0,30.40,SE,143,9.0,13.0,73,0.00,,,0.00,,2013-02-11 00:11:00,
2013-02-10 19:22:00,35.0,27.0,30.40,SE,143,9.0,13.0,73,0.00,,,0.00,,2013-02-11 00:22:00,
2013-02-10 19:32:00,35.0,27.0,30.40,SE,143,9.0,13.0,73,0.00,,,0.00,,2013-02-11 00:32:00,
2013-02-10 19:42:00,35.0,27.0,30.40,SE,143,9.0,13.0,73,0.00,,,0.00,,2013-02-11 00:42:00,
2013-02-10 19:52:00,36.0,29.0,30.39,SE,146,6.0,14.0,74,0.00,,,0.00,,2013-02-11 00:52:00,
2013-02-10 20:01:00,36.0,29.0,30.39,SE,146,6.0,14.0,74,0.00,,,0.00,,2013-02-11 01:01:00,
2013-02-10 20:11:00,36.0,29.0,30.39,SE,146,6.0,14.0,74,0.00,,,0.00,,2013-02-11 01:11:00,
2013-02-10 20:21:00,36.0,29.0,30.40,South,181,6.0,12.0,76,0.00,,,0.00,,2013-02-11 01:21:00,
2013-02-10 20:32:00,36.0,29.0,30.40,South,181,6.0,12.0,76,0.00,,,0.00,,2013-02-11 01:32:00,
2013-02-10 20:42:00,37.0,30.0,30.40,South,172,4.0,10.0,76,0.00,,,0.00,,2013-02-11 01:42:00,
2013-02-10 20:52:00,37.0,30.0,30.40,South,172,4.0,10.0,76,0.00,,,0.00,,2013-02-11 01:52:00,
2013-02-10 21:01:00,37.0,30.0,30.40,South,172,4.0,10.0,76,0.00,,,0.00,,2013-02-11 02:01:00,
2013-02-10 21:11:00,37.0,30.0,30.40,South,172,4.0,10.0,76,0.00,,,0.00,,2013-02-11 02:11:00,
2013-02-10 21:21:00,37.0,31.0,30.40,South,174,8.0,11.0,79,0.00,,,0.00,,2013-02-11 02:21:00,
2013-02-10 21:32:00,37.0,31.0,30.40,South,174,8.0,11.0,79,0.00,,,0.00,,2013-02-11 02:32:00,
2013-02-10 21:42:00,38.0,32.0,30.39,SE,135,6.0,11.0,79,0.00,,,0.00,,2013-02-11 02:42:00,
2013-02-10 21:52:00,38.0,32.0,30.39,SE,135,6.0,11.0,79,0.00,,,0.00,,2013-02-11 02:52:00,
2013-02-10 22:02:00,38.0,32.0,30.39,SE,135,6.0,11.0,79,0.00,,,0.00,,2013-02-11 03:02:00,
2013-02-10 22:11:00,38.0,32.0,30.39,SE,135,6.0,11.0,79,0.00,,,0.00,,2013-02-11 03:11:00,
2013-02-10 22:21:00,38.0,33.0,30.37,SSE,149,5.0,11.0,82,0.00,,,0.00,,2013-02-11 03:21:00,
2013-02-10 22:32:00,38.0,33.0,30.37,SSE,149,5.0,11.0,82,0.00,,,0.00,,2013-02-11 03:32:00,
2013-02-10 22:42:00,38.0,34.0,30.36,SSE,158,9.0,12.0,84,0.00,,,0.00,,2013-02-11 03:42:00,
2013-02-10 22:52:00,38.0,34.0,30.36,SSE,158,9.0,12.0,84,0.00,,,0.00,,2013-02-11 03:52:00,
2013-02-10 23:01:00,38.0,34.0,30.36,SSE,158,9.0,12.0,84,0.00,,,0.00,,2013-02-11 04:01:00,
2013-02-10 23:11:00,38.0,34.0,30.36,SSE,158,9.0,12.0,84,0.00,,,0.00,,2013-02-11 04:11:00,
2013-02-10 23:22:00,39.0,35.0,30.35,ESE,115,7.0,16.0,86,0.00,,,0.00,,2013-02-11 04:22:00,
2013-02-10 23:32:00,39.0,35.0,30.35,ESE,115,7.0,16.0,86,0.00,,,0.00,,2013-02-11 04:32:00,
2013-02-10 23:42:00,39.0,35.0,30.35,ESE,115,7.0,16.0,86,0.00,,,0.00,,2013-02-11 04:42:00,
2013-02-10 23:52:00,39.0,36.0,30.35,SE,146,5.0,11.0,88,0.00,,,0.00,,2013-02-11 04:52:00,